Skip Page Navigation
NASA JPL Caltech
NASA Logo - Jet Propulsion Laboratory + View the NASA Portal
+ Center for Near-Earth Object Studies
JPL Home Earth Solar System Stars & Galaxies Technology
JPL Solar System Dynamics
BODIES ORBITS EPHEMERIDES TOOLS PHYSICAL DATA DISCOVERY FAQ SITE MAP
IMPORTANT: The SSD Announcement email list is now available. Major changes are coming in the near future, including possible hostname and/or URL changes. To be notified of such changes, subscribe to this email list.

Please visit this page for more details.


JPL Small-Body Database Browser
Search: [ help ]  
85084 (2309 T-2)
Classification: Main-belt Asteroid          SPK-ID: 2085084
Ephemeris | Orbit Diagram | Orbital Elements | Mission Design | Physical Parameters | Discovery Circumstances | Close-Approach Data ]

[ show orbit diagram ]
Orbital Elements at Epoch 2459000.5 (2020-May-31.0) TDB
Reference: JPL 22 (heliocentric ecliptic J2000)
 Element Value Uncertainty (1-sigma)   Units 
e .1543646916900105 5.2449e-08  
a 2.795693363355797 1.5616e-08 au
q 2.36413701926157 1.4769e-07 au
i 13.73330444625556 5.9223e-06 deg
node 15.56175066000456 1.756e-05 deg
peri 332.8659623088889 2.2489e-05 deg
M 7.45965703124529 1.5181e-05 deg
tp 2458965.120711889654
(2020-Apr-25.62071189)
7.1865e-05 TDB
period 1707.389986748263
4.67
1.4305e-05
3.916e-08
d
yr
n .2108481382660694 1.7666e-09 deg/d
Q 3.227249707450023 1.8027e-08 au
  Orbit Determination Parameters
   # obs. used (total)      1157  
   data-arc span      16737 days (45.82 yr)  
   first obs. used      1973-09-29  
   last obs. used      2019-07-27  
   planetary ephem.      DE431  
   SB-pert. ephem.      SB431-N16  
   condition code      0  
   norm. resid. RMS      .55361  
   source      ORB  
   producer      Otto Matic  
   solution date      2020-Jan-29 13:17:43  

Additional Information
 Earth MOID = 1.36762 au 
 Jupiter MOID = 2.24041 au 
 T_jup = 3.268 
[ show covariance matrix ]

Ephemeris | Orbit Diagram | Orbital Elements | Mission Design | Physical Parameters | Discovery Circumstances | Close-Approach Data ]

Physical Parameter Table
Parameter Symbol Value Units Sigma Reference Notes
absolute magnitude H 14.1   n/a MPO359336  
diameter diameter 4.816 km 0.137 urn:nasa:pds:neowise_diameters_albedos::2.0[mainbelt] (http://adsabs.harvard.edu/abs/2011ApJ...741...68M)  
geometric albedo albedo 0.230   0.042 urn:nasa:pds:neowise_diameters_albedos::2.0[mainbelt] (http://adsabs.harvard.edu/abs/2011ApJ...741...68M)  

85084 (2309 T-2)          Discovered 1973-Sep-29 by van Houten, C. J., van Houten-Groeneveld, I., Gehrels, T. at Palomar
Reference: 20040504/Numbers.arcLast Updated: 2004-07-16

[ show close-approach data ]
Alternate Designations
 2309 T-2 = 1997 XB14 = 2001 QT25 
Ephemeris | Orbit Diagram | Orbital Elements | Mission Design | Physical Parameters | Discovery Circumstances | Close-Approach Data ]
ABOUT SSD CREDITS/AWARDS PRIVACY/COPYRIGHT GLOSSARY LINKS
FirstGov 2020-Mar-29 16:41 UT
(server date/time)  
NASA Home Page
Site Manager:   Ryan S. Park
Webmaster  Alan B. Chamberlin